Pontiac, MI

9:03 PM EDT on April 30, 2017 (GMT -0400)
Oakland County International

Weather History for KPTK - November, 2010

Change the Weather History Date:

Thursday, November 4, 2010

  Actual Average Record
Temperature  
Mean Temperature 39 °F -  
Max Temperature 46 °F 49 °F 75 °F (2015)
Min Temperature 32 °F 34 °F 21 °F (2006)
Degree Days  
Heating Degree Days 26    
Moisture  
Dew Point 34 °F    
Average Humidity 80    
Maximum Humidity 93    
Minimum Humidity 70    
Precipitation  
Precipitation 0.00 in - - ()
Sea Level Pressure  
Sea Level Pressure 29.71 in    
Wind  
Wind Speed 6 mph (NNW)    
Max Wind Speed 20 mph    
Max Gust Speed 29 mph    
Visibility 9 miles    
Events Rain    
Averages and records for this station are not official NWS values.
T = Trace of Precipitation, MM = Missing Value Source: NWS Daily Summary

Daily Weather History Graph

Daily Weather History Graph

Search for Another Location

Airport or City:

Trip Planner

Search our weather history database for the weather conditions in past years. The results will help you decide how hot, cold, wet, or windy it might be!

Date:

Astronomy

Nov. 04, 2010 Rise Set
Actual Time 8:11 AM EDT 6:22 PM EDT
Civil Twilight 7:41 AM EDT 6:52 PM EDT
Nautical Twilight 7:08 AM EDT 7:25 PM EDT
Astronomical Twilight 6:35 AM EDT 7:58 PM EDT
Moon 6:20 AM EDT (11/4) 5:06 PM EDT (11/4)
Length of Visible Light 11h 10m
Length of Day
10h 11m
Waning Crescent, 3% of the Moon is Illuminated
Nov 4
Waning Crescent
Nov 6
New
Nov 13
First Quarter
Nov 21
Full
Nov 28
Last Quarter

Hourly Weather History & Observations

Time (EDT) Temp. Windchill Dew Point Humidity Pressure Visibility Wind Dir Wind Speed Gust Speed Precip Events Conditions
12:53 AM 37.9 °F 35.5 °F 32.0 °F 79% 29.78 in 10.0 mi WSW 3.5 mph - N/A   Overcast
1:53 AM 37.0 °F - 30.9 °F 79% 29.76 in 10.0 mi Calm Calm - N/A   Mostly Cloudy
2:53 AM 34.0 °F - 30.0 °F 85% 29.74 in 10.0 mi Calm Calm - N/A   Mostly Cloudy
3:53 AM 32.0 °F - 28.9 °F 88% 29.73 in 9.0 mi Calm Calm - N/A   Mostly Cloudy
4:53 AM 32.0 °F - 28.9 °F 88% 29.72 in 9.0 mi Calm Calm - N/A   Scattered Clouds
5:53 AM 33.1 °F - 30.0 °F 89% 29.71 in 8.0 mi Calm Calm - N/A   Mostly Cloudy
6:53 AM 34.0 °F - 30.9 °F 89% 29.71 in 8.0 mi Calm Calm - N/A   Overcast
7:53 AM 36.0 °F 32.1 °F 34.0 °F 93% 29.71 in 9.0 mi West 4.6 mph - 0.00 in   Overcast
8:53 AM 37.0 °F - 34.0 °F 89% 29.71 in 5.0 mi Calm Calm - N/A   Overcast
9:53 AM 39.0 °F 34.8 °F 35.1 °F 86% 29.72 in 5.0 mi WNW 5.8 mph - N/A   Overcast
10:53 AM 41.0 °F 36.4 °F 36.0 °F 82% 29.71 in 6.0 mi NNW 6.9 mph - N/A   Haze
11:06 AM 41.0 °F 37.1 °F 37.4 °F 87% 29.69 in 6.0 mi NW 5.8 mph - N/A   Overcast
11:36 AM 41.0 °F 36.4 °F 37.4 °F 87% 29.69 in 6.0 mi WNW 6.9 mph - 0.00 in   Overcast
11:53 AM 41.0 °F 37.1 °F 37.9 °F 89% 29.71 in 5.0 mi NW 5.8 mph - 0.00 in   Overcast
12:05 PM 41.0 °F 37.1 °F 37.4 °F 87% 29.69 in 5.0 mi NW 5.8 mph - N/A   Overcast
12:44 PM 44.6 °F 39.7 °F 39.2 °F 81% 29.67 in 9.0 mi NNW 9.2 mph - N/A   Overcast
12:53 PM 45.0 °F 41.2 °F 39.0 °F 80% 29.69 in 10.0 mi North 6.9 mph - N/A   Mostly Cloudy
1:30 PM 44.6 °F 39.2 °F 37.4 °F 76% 29.66 in 10.0 mi North 10.4 mph - 0.00 in   Overcast
1:53 PM 45.0 °F 39.7 °F 37.9 °F 76% 29.68 in 10.0 mi NNW 10.4 mph - 0.00 in   Overcast
2:53 PM 46.0 °F 43.1 °F 37.0 °F 71% 29.67 in 10.0 mi NNW 5.8 mph - N/A   Mostly Cloudy
3:00 PM 44.6 °F 40.2 °F 35.6 °F 71% 29.65 in 10.0 mi North 8.1 mph - N/A   Mostly Cloudy
3:14 PM 44.6 °F 40.2 °F 35.6 °F 71% 29.65 in 10.0 mi North 8.1 mph - N/A   Mostly Cloudy
3:53 PM 42.1 °F 35.7 °F 37.9 °F 85% 29.68 in 8.0 mi NNW 11.5 mph 19.6 mph 0.00 in Rain Light Rain
4:47 PM 42.8 °F 37.0 °F 37.4 °F 81% 29.68 in 10.0 mi North 10.4 mph 19.6 mph 0.00 in   Overcast
4:53 PM 42.1 °F 34.5 °F 37.9 °F 85% 29.70 in 10.0 mi North 15.0 mph 19.6 mph 0.00 in   Overcast
5:31 PM 42.8 °F 36.2 °F 37.4 °F 81% 29.69 in 10.0 mi North 12.7 mph - N/A   Overcast
5:53 PM 42.1 °F 34.5 °F 36.0 °F 79% 29.72 in 10.0 mi North 15.0 mph 19.6 mph N/A   Mostly Cloudy
6:22 PM 42.8 °F 36.6 °F 33.8 °F 70% 29.70 in 10.0 mi NNW 11.5 mph - N/A   Mostly Cloudy
6:38 PM 42.8 °F 36.2 °F 33.8 °F 70% 29.70 in 10.0 mi North 12.7 mph - N/A   Mostly Cloudy
6:53 PM 41.0 °F 33.5 °F 34.0 °F 76% 29.73 in 10.0 mi North 13.8 mph - N/A   Mostly Cloudy
7:17 PM 41.0 °F 34.7 °F 33.8 °F 76% 29.71 in 10.0 mi North 10.4 mph - N/A   Overcast
7:53 PM 41.0 °F 33.1 °F 32.0 °F 70% 29.74 in 10.0 mi North 15.0 mph 23.0 mph N/A   Overcast
8:18 PM 39.2 °F 30.5 °F 32.0 °F 75% 29.72 in 10.0 mi North 16.1 mph 25.3 mph N/A   Mostly Cloudy
8:30 PM 39.2 °F 31.2 °F 32.0 °F 75% 29.72 in 10.0 mi North 13.8 mph 20.7 mph N/A   Mostly Cloudy
8:40 PM 39.2 °F 30.8 °F 32.0 °F 75% 29.72 in 10.0 mi North 15.0 mph 21.9 mph N/A   Mostly Cloudy
8:53 PM 39.9 °F 30.5 °F 32.0 °F 73% 29.74 in 10.0 mi North 19.6 mph 28.8 mph N/A   Mostly Cloudy
9:16 PM 39.2 °F 31.6 °F 32.0 °F 75% 29.72 in 10.0 mi North 12.7 mph - N/A   Mostly Cloudy
9:48 PM 39.2 °F 32.0 °F 32.0 °F 75% 29.73 in 10.0 mi North 11.5 mph 24.2 mph N/A   Mostly Cloudy
9:53 PM 39.0 °F 31.4 °F 32.0 °F 76% 29.75 in 10.0 mi North 12.7 mph 24.2 mph N/A   Mostly Cloudy
10:53 PM 39.0 °F 31.8 °F 32.0 °F 76% 29.75 in 10.0 mi North 11.5 mph 19.6 mph 0.00 in   Overcast
11:32 PM 37.4 °F 28.5 °F 30.2 °F 75% 29.73 in 10.0 mi NNW 15.0 mph 23.0 mph N/A   Mostly Cloudy
11:48 PM 37.4 °F 27.5 °F 32.0 °F 81% 29.73 in 10.0 mi NNW 18.4 mph 21.9 mph N/A   Mostly Cloudy
11:53 PM 37.9 °F 28.9 °F 32.0 °F 79% 29.75 in 10.0 mi NNW 16.1 mph 24.2 mph N/A   Mostly Cloudy